GFSFLT1_925_thetae_273.txt.gz
Theta_e
345 343 348 354 357 358 359 359 362 361 362 361 362 361 359 359 358 356 354 351 345 341 340 342 338 341 342 343 343 343 346 349 350
344 345 347 353 356 357 357 359 363 362 362 361 359 359 358 359 356 353 348 343 340 341 342 342 344 345 343 343 341 342 341 348 349
346 344 344 350 351 356 357 359 361 361 359 360 360 359 358 354 355 350 343 341 341 342 342 343 345 344 340 339 340 340 341 345 339
345 345 343 349 351 356 358 360 361 361 360 360 361 359 356 355 354 344 342 339 342 341 343 344 345 343 341 340 339 339 343 334 328
344 343 345 352 353 356 358 359 361 360 359 360 360 355 355 351 348 342 340 341 344 344 348 346 344 344 342 340 337 342 336 334 331
345 344 347 350 354 356 359 360 360 360 362 359 354 353 347 345 342 345 346 347 348 348 347 347 345 344 343 343 341 341 336 335 334
341 340 339 356 356 355 359 361 362 358 355 353 351 346 345 343 345 348 350 349 349 346 346 347 346 342 343 342 342 341 337 335 336
347 339 339 359 359 361 361 360 357 354 356 350 345 346 345 345 346 348 350 349 346 346 346 348 346 343 341 341 342 341 337 336 334
354 360 360 360 362 360 360 360 358 354 356 348 349 345 345 348 349 348 349 348 346 348 346 343 342 341 341 338 336 334 334 334 333
360 359 360 361 360 360 360 360 359 357 354 349 349 350 348 348 349 348 346 347 346 344 342 341 339 334 331 331 331 331 331 331 332
354 361 361 360 358 361 361 361 359 355 353 350 348 346 347 346 344 343 344 345 341 338 336 333 330 328 329 330 322 325 324 324 324
351 360 360 358 357 360 357 355 353 349 346 345 347 345 342 334 330 330 341 339 336 331 326 327 328 329 331 324 319 319 319 318 315
359 358 356 355 354 354 350 348 344 341 338 337 343 339 335 340 341 336 333 329 327 327 326 329 329 326 324 322 318 315 313 308 308
351 353 354 354 353 351 351 345 342 341 339 335 335 343 340 338 334 329 327 325 325 327 325 320 321 322 322 318 316 313 310 307 307
351 351 352 351 349 349 347 342 339 343 341 340 338 336 332 328 327 324 324 325 326 319 315 316 317 315 314 313 313 312 307 306 306
348 348 346 345 344 343 342 340 339 337 335 335 332 327 328 327 324 323 324 325 320 317 313 315 314 314 313 312 309 307 306 306 306
346 345 343 342 340 339 337 336 334 332 328 328 327 327 325 325 323 322 322 320 319 317 313 314 313 313 310 309 307 307 306 307 307
345 344 342 341 339 336 333 329 328 327 328 327 325 325 319 322 320 320 321 319 319 316 314 313 312 310 309 308 307 307 306 306 306
346 344 341 339 336 333 330 328 327 326 326 326 325 324 318 317 317 315 315 318 316 316 313 313 312 311 310 310 309 308 309 308 306
344 343 341 338 335 331 328 326 325 324 322 318 316 318 318 315 314 314 316 315 315 317 314 314 312 312 310 309 309 309 308 308 308

GFSFLT1_925_thetae_276.txt.gz
Theta_e
346 340 338 347 351 357 359 361 363 363 363 362 360 357 359 359 358 355 351 344 340 340 340 342 344 342 338 337 338 338 345 341 337
350 350 346 348 355 356 358 359 361 361 361 360 358 361 359 358 355 351 342 339 338 337 341 344 345 341 338 337 338 341 343 331 328
350 350 352 355 355 356 359 359 360 359 359 361 360 359 358 356 351 343 339 339 340 341 343 344 344 342 340 336 337 341 334 332 328
347 354 357 356 355 355 358 361 361 361 361 358 359 358 357 354 349 342 340 341 342 342 345 345 343 343 342 340 340 340 335 334 333
349 349 353 353 354 354 359 360 360 359 358 359 360 358 353 352 344 341 341 341 342 347 346 346 344 343 343 343 342 341 336 335 335
347 350 351 352 353 355 358 358 359 359 359 360 359 355 353 351 343 343 344 348 347 346 345 346 345 342 343 341 340 342 337 335 334
349 349 347 350 354 356 358 358 358 359 359 360 357 354 347 342 348 348 348 346 346 345 346 346 344 342 341 341 341 339 335 334 332
346 344 343 351 353 354 357 358 357 359 360 358 353 345 343 345 350 347 346 346 345 345 345 343 342 340 335 333 334 332 333 332 332
344 345 344 344 351 350 358 355 354 355 354 352 347 344 345 348 348 347 346 345 345 344 342 339 337 330 329 328 327 328 329 330 328
344 342 340 345 337 344 357 354 354 352 349 347 346 346 349 348 346 344 344 344 342 338 335 333 328 330 327 322 319 319 319 318 317
346 337 341 353 347 357 356 355 352 350 349 347 347 348 346 345 343 342 343 340 336 329 326 326 329 328 321 318 314 314 312 310 309
341 356 355 355 358 357 356 353 345 345 348 347 347 343 341 334 329 337 338 333 326 326 328 329 329 321 318 316 312 309 307 308 308
354 354 353 354 358 357 351 342 341 348 345 343 340 333 334 338 338 335 329 326 326 327 323 325 321 317 315 313 310 307 306 307 308
352 352 350 349 349 347 343 340 342 338 341 339 338 341 337 333 329 326 325 327 326 320 319 322 316 313 313 310 307 307 307 308 307
350 349 349 347 345 343 341 340 340 337 336 343 340 336 333 326 325 324 325 321 316 314 315 313 312 310 308 307 307 306 306 307 307
346 345 345 344 341 340 340 340 337 339 340 338 335 331 325 322 323 324 325 320 314 313 312 312 310 308 306 306 306 307 307 306 307
342 342 340 340 339 338 337 338 338 337 334 333 327 326 324 322 323 324 321 318 314 313 312 310 309 308 308 308 309 309 308 308 307
341 340 338 338 336 335 334 334 331 329 328 326 325 324 324 322 322 321 319 318 314 314 313 312 310 311 311 311 310 310 309 308 308
340 338 337 335 334 331 329 327 327 328 327 325 324 318 320 322 319 321 318 318 314 313 314 314 313 313 313 312 311 310 309 309 307
340 337 336 333 331 329 327 325 325 325 325 324 324 316 316 315 314 315 317 316 315 314 312 313 313 314 313 313 312 311 310 309 308

GFSFLT1_925_thetae_279.txt.gz
Theta_e
343 341 335 342 346 351 353 353 352 352 353 351 351 358 357 355 355 355 350 346 341 339 339 343 342 338 336 337 339 342 331 327 327
345 343 339 340 344 355 356 357 358 356 357 356 360 358 356 357 357 354 346 340 338 339 342 344 343 340 337 336 338 336 333 332 329
346 346 347 343 350 356 358 359 359 361 362 361 360 357 358 358 354 348 341 337 338 341 344 343 342 341 339 339 340 336 335 334 334
348 348 348 348 352 355 357 359 360 361 361 359 358 359 358 355 350 341 337 339 340 342 344 344 343 343 341 342 341 339 335 334 334
350 352 355 353 353 355 358 359 359 358 358 358 359 358 357 354 346 342 340 340 342 345 345 345 343 342 342 341 340 341 336 334 332
348 351 342 339 352 354 358 358 359 359 358 359 358 358 355 353 345 342 341 342 346 345 345 345 343 342 340 341 340 335 334 333 332
347 348 348 345 351 354 357 358 358 358 357 357 359 357 352 351 342 342 346 346 345 344 345 344 341 338 338 335 333 332 332 331 331
347 346 349 352 353 353 356 357 357 357 357 358 358 354 351 346 346 347 346 345 344 344 343 340 336 333 330 327 327 326 327 327 325
347 346 351 353 354 354 355 357 356 352 348 352 349 351 343 349 347 345 345 345 343 341 339 333 329 325 324 321 318 317 318 317 317
345 341 345 351 354 353 356 354 351 351 350 348 348 343 347 348 346 345 345 342 339 336 330 328 325 321 321 318 316 315 311 309 309
344 340 339 340 338 353 352 349 349 348 340 345 344 346 346 346 344 343 341 337 331 328 328 327 321 317 316 314 308 308 308 308 309
341 341 335 341 342 354 351 349 348 344 344 344 345 345 345 344 343 341 336 329 326 328 329 321 316 314 311 308 307 307 308 308 308
342 348 350 349 353 353 350 348 347 344 345 345 341 338 342 336 337 336 327 327 328 328 324 318 315 311 308 307 308 307 307 307 307
349 350 354 353 351 350 346 344 345 344 344 341 340 338 334 337 333 326 326 324 323 322 320 315 312 308 307 306 307 307 307 307 307
347 347 347 345 343 341 341 343 345 341 339 337 336 337 334 328 325 326 324 320 320 321 315 311 308 306 306 306 307 307 307 308 308
344 345 343 341 340 339 339 339 341 338 338 340 335 331 326 325 324 322 318 315 314 313 311 308 306 306 306 307 307 308 309 309 309
343 342 340 339 338 337 336 337 336 339 340 336 330 323 323 324 324 318 315 313 312 311 309 307 307 308 309 309 309 309 310 310 309
339 339 338 339 336 335 335 336 337 337 333 330 324 322 322 323 324 321 317 313 312 311 308 309 311 312 311 311 312 311 310 309 309
338 336 335 335 335 335 333 334 332 329 327 324 323 322 322 321 321 319 317 314 313 313 312 311 312 312 312 313 312 312 311 311 309
336 336 335 333 332 331 328 327 327 327 325 323 320 322 322 320 321 320 318 317 313 313 313 313 314 314 314 314 313 313 312 311 310

GFSFLT1_925_thetae_285.txt.gz
Theta_e
347 347 346 346 346 346 348 348 347 347 348 348 346 347 348 356 356 355 353 347 346 342 340 342 338 336 336 337 340 332 333 335 333
347 347 346 346 345 346 347 349 349 348 348 349 350 350 348 353 355 353 348 344 341 341 342 344 340 338 337 339 338 333 335 336 335
342 348 347 345 346 347 348 349 350 349 349 350 352 353 351 353 357 352 348 344 339 339 343 346 342 341 341 343 342 335 334 337 335
343 345 347 344 345 348 352 352 352 351 351 351 354 353 354 357 357 353 348 343 337 343 344 344 345 343 345 344 343 339 338 337 336
344 346 347 345 343 346 352 355 355 356 354 354 355 355 358 357 354 351 344 342 343 344 346 344 343 343 343 341 339 338 337 336 335
350 349 349 348 346 351 353 359 360 358 357 355 354 354 355 353 350 345 342 342 344 346 345 345 342 340 338 336 335 334 332 329 327
350 353 351 352 354 356 359 361 355 348 346 348 350 351 350 349 345 340 341 343 347 347 343 339 338 334 332 329 327 324 323 322 319
352 355 352 356 358 361 360 355 350 342 338 338 336 336 345 345 342 339 339 343 346 343 339 336 332 329 324 321 321 319 316 313 314
352 355 352 356 359 362 355 354 346 342 336 339 338 338 344 345 342 340 341 344 343 338 335 330 326 322 321 319 316 309 309 311 313
350 353 353 351 354 360 357 352 340 340 337 335 334 334 338 339 343 344 344 342 338 334 328 324 322 319 315 315 313 309 309 310 313
350 349 351 355 356 358 355 351 344 343 344 340 337 338 337 341 345 344 341 338 334 328 324 321 318 313 311 314 310 308 308 308 311
347 347 350 353 356 356 352 346 344 343 341 341 340 339 339 343 343 341 337 333 328 324 321 319 313 309 311 312 307 306 306 310 310
352 345 346 355 354 353 352 348 346 345 344 342 343 344 344 344 343 339 336 332 326 322 320 316 312 311 309 308 307 308 308 310 311
351 346 351 353 350 351 351 348 342 335 338 345 345 346 344 342 339 336 333 329 324 321 318 314 312 311 310 308 309 308 309 309 311
352 348 353 351 351 353 351 348 343 343 343 344 344 344 343 338 335 333 329 327 323 321 318 314 312 312 311 311 308 309 308 309 309
349 351 350 349 353 350 344 342 343 344 341 340 341 340 337 335 331 327 327 325 323 320 316 312 311 311 312 311 311 310 309 309 309
347 346 344 347 349 344 343 342 342 341 339 340 338 336 333 328 326 325 324 323 321 318 314 310 310 312 312 312 312 312 311 311 310
342 342 344 345 344 342 341 341 340 339 337 336 336 331 327 324 322 323 322 320 318 315 313 310 312 313 314 314 315 314 312 312 312
341 340 341 339 341 342 341 339 337 335 335 335 332 327 324 322 321 319 316 315 313 311 310 307 310 311 312 314 313 312 312 312 312
339 340 341 340 339 338 338 336 333 332 332 331 329 326 323 319 318 317 316 316 315 311 309 307 309 310 311 313 313 313 313 312 312